Skip to main content Skip to accessibility
This website is not compatible with your web browser. You should install a newer browser. If you live in Jersey and need help upgrading call the States of Jersey web team on 440099.
Homegov.je

L'înformâtion et les sèrvices publyis pouor I'Île dé Jèrri

  • Choose the service you want to log in to:

  • gov.je

    Update your notification preferences

  • one.gov.je

    Access government and parish services

  • CAESAR

    Clear goods through customs or claim relief

  • Talentlink

    View or update your States of Jersey job application

Local METARs

METAR EGJJ 191220Z 22011KT 9999 VCSH FEW027 BKN044 08/07 Q1008

METAR EGJB 191220Z 21015KT 9999 FEW012 FEW015CB 10/07 Q1007

METAR EGJA 191220Z 21018KT 9999 FEW018 FEW022TCU 10/07 Q1007

METAR LFRD 191230Z AUTO 20009KT 9999 FEW016 SCT038 BKN064 08/07 Q1009 TEMPO 19015G30KT 3000 TSRA BKN015CB

METAR LFRC 191230Z AUTO 22016KT CAVOK 09/06 Q1007 TEMPO 20015G30KT 3000 TSRA BKN015CB

 

 

 

​Times are in Greenwich Mean Time (GMT) and not British Summer Time (BST). They will be one hour different during BST.

Back to top
rating button